No particular awareness of the weather is required.    There are no Weather-warnings


Ulpukkaniemi more information Ulpukkaniemi


Yksityisiä sääasemia lähellä:

Template documentation
and downloads

And another site


Löydät sääaseman tiedot myös:

European Weather Network



Weather Underground säähistoriasivu

Päivittäin yhteenveto Huhtikuu 20, 2018 Yksiköt:  Metriset    Englantilaiset   Molemmat
« Edellinen Päivä
Seuraava Päivä »
Päivittäin Viikoittain Kuukausittain Vuosittain Mukautettu
  Tämänhetkinen: Korkea: Matala: Keskiarvo:
Lämpötila: -7.6 °C -17.8 °C -9.1 °C -8.6 °C
Kastepiste: -10.1 °C -17.8 °C -11 °C -10.5 °C
Kosteus: 75 % Humidity % 74 % 80 %
Tuulen nopeus: 25.9 km/h 0 km/h 7.7 km/h 18.2 km/h
Tuulenpuuska: 49.2 km/h 0 km/h - -
Tuuli:NE - - NE
Ilmanpaine: 34520.3 hPa 0 hPa 34510.1 hPa -
Sade: 0 mm      
Historical Graphs
 
 
Taulukkotiedot Huhtikuu 20, 2018
Aika Lämpötila Kastepiste Ilmanpaine Tuuli Tuulen nopeus Tuulenpuuska Kosteus Sademäärä (tunneittain)
-17.8 °C -17.8 °C 0 hPa Calm     Humidity % 0 mm
00:00 -9 °C -10.5 °C 34625.2 hPa NE 18.2 km/h 31.1 km/h 84 % 0 mm
00:05 -9 °C -10.6 °C 34625.2 hPa NE 15.6 km/h 33.6 km/h 83 % 0 mm
00:10 -9.1 °C -10.7 °C 34625.2 hPa NE 15.6 km/h 36.2 km/h 83 % 0 mm
00:13 -9.1 °C -10.7 °C 34625.2 hPa NE 15.6 km/h 36.2 km/h 83 % 0 mm
00:18 -9 °C -10.6 °C 34625.2 hPa NE 15.6 km/h 36.2 km/h 83 % 0 mm
00:23 -9 °C -10.6 °C 34625.2 hPa NE 15.6 km/h 31.1 km/h 83 % 0 mm
00:28 -9.1 °C -10.8 °C 34625.2 hPa NE 12.9 km/h 31.1 km/h 82 % 0 mm
00:33 -9 °C -10.7 °C 34625.2 hPa NE 12.9 km/h 28.5 km/h 82 % 0 mm
00:38 -9 °C -10.7 °C 34625.2 hPa NE 12.9 km/h 28.5 km/h 82 % 0 mm
00:43 -9 °C -10.7 °C 34625.2 hPa NE 12.9 km/h 33.6 km/h 82 % 0 mm
00:48 -9 °C -10.8 °C 34625.2 hPa NE 12.9 km/h 33.6 km/h 81 % 0 mm
00:53 -8.9 °C -10.9 °C 34625.2 hPa NE 15.6 km/h 33.6 km/h 80 % 0 mm
00:58 -8.9 °C -11 °C 34625.2 hPa NE 15.6 km/h 38.8 km/h 78 % 0 mm
01:03 -8.8 °C -10.9 °C 34625.2 hPa NE 18.2 km/h 41.4 km/h 78 % 0 mm
01:08 -8.8 °C -10.9 °C 34625.2 hPa NE 20.8 km/h 41.4 km/h 78 % 0 mm
01:13 -8.8 °C -11 °C 34625.2 hPa NE 20.8 km/h 33.6 km/h 77 % 0 mm
01:18 -8.8 °C -10.9 °C 34625.2 hPa NE 18.2 km/h 38.8 km/h 79 % 0 mm
01:23 -8.9 °C -10.9 °C 34611.7 hPa NE 18.2 km/h 41.4 km/h 79 % 0 mm
01:28 -8.9 °C -10.8 °C 34611.7 hPa NE 20.8 km/h 41.4 km/h 80 % 0 mm
01:33 -8.9 °C -10.9 °C 34611.7 hPa NE 20.8 km/h 41.4 km/h 79 % 0 mm
01:38 -8.9 °C -10.9 °C 34611.7 hPa NNE 23.3 km/h 41.4 km/h 80 % 0 mm
01:43 -8.9 °C -10.9 °C 34611.7 hPa NNE 20.8 km/h 36.2 km/h 80 % 0 mm
01:48 -8.9 °C -10.9 °C 34611.7 hPa NNE 15.6 km/h 28.5 km/h 80 % 0 mm
01:53 -8.9 °C -10.9 °C 34625.2 hPa NNE 12.9 km/h 28.5 km/h 80 % 0 mm
01:58 -8.9 °C -10.9 °C 34611.7 hPa NNE 12.9 km/h 28.5 km/h 80 % 0 mm
02:03 -8.9 °C -10.7 °C 34611.7 hPa NNE 12.9 km/h 23.3 km/h 81 % 0 mm
02:08 -8.9 °C -10.7 °C 34611.7 hPa NNE 12.9 km/h 25.9 km/h 81 % 0 mm
02:13 -8.9 °C -10.7 °C 34611.7 hPa NNE 12.9 km/h 31.1 km/h 81 % 0 mm
02:18 -9 °C -10.7 °C 34601.5 hPa NE 15.6 km/h 33.6 km/h 82 % 0 mm
02:24 -9 °C -10.7 °C 34601.5 hPa NNE 15.6 km/h 33.6 km/h 82 % 0 mm
02:28 -9 °C -10.7 °C 34601.5 hPa NNE 15.6 km/h 28.5 km/h 82 % 0 mm
02:34 -9 °C -10.8 °C 34601.5 hPa NNE 12.9 km/h 28.5 km/h 81 % 0 mm
02:39 -8.9 °C -10.7 °C 34601.5 hPa NNE 12.9 km/h 28.5 km/h 82 % 0 mm
02:43 -8.9 °C -10.6 °C 34601.5 hPa NNE 12.9 km/h 28.5 km/h 83 % 0 mm
02:49 -8.9 °C -10.6 °C 34601.5 hPa NNE 12.9 km/h 25.9 km/h 83 % 0 mm
02:54 -8.9 °C -10.6 °C 34601.5 hPa NNE 12.9 km/h 31.1 km/h 83 % 0 mm
02:59 -8.9 °C -10.4 °C 34601.5 hPa NNE 10.3 km/h 31.1 km/h 84 % 0 mm
03:04 -9 °C -10.4 °C 34601.5 hPa NNE 12.9 km/h 31.1 km/h 85 % 0 mm
03:09 -9 °C -10.3 °C 34601.5 hPa North 12.9 km/h 31.1 km/h 86 % 0 mm
03:14 -9.1 °C -10.3 °C 34601.5 hPa NNE 12.9 km/h 31.1 km/h 86 % 0 mm
03:19 -9.1 °C -10.3 °C 34601.5 hPa NNE 12.9 km/h 31.1 km/h 86 % 0 mm
03:24 -9.1 °C -10.3 °C 34601.5 hPa NNE 12.9 km/h 31.1 km/h 86 % 0 mm
03:29 -9.1 °C -10.2 °C 34591.4 hPa NNE 12.9 km/h 31.1 km/h 87 % 0 mm
03:34 -9 °C -10.2 °C 34591.4 hPa NNE 12.9 km/h 23.3 km/h 87 % 0 mm
03:39 -9 °C -10.2 °C 34591.4 hPa North 10.3 km/h 25.9 km/h 87 % 0 mm
03:44 -9.1 °C -10.2 °C 34591.4 hPa NNE 10.3 km/h 25.9 km/h 87 % 0 mm
03:49 -9.1 °C -10.2 °C 34591.4 hPa NNE 12.9 km/h 25.9 km/h 87 % 0 mm
03:54 -9.1 °C -10.2 °C 34591.4 hPa NNE 12.9 km/h 31.1 km/h 87 % 0 mm
03:59 -9.1 °C -10.2 °C 34591.4 hPa NNE 12.9 km/h 31.1 km/h 87 % 0 mm
04:04 -9.1 °C -10.2 °C 34591.4 hPa NNE 12.9 km/h 33.6 km/h 87 % 0 mm
04:09 -9 °C -10.3 °C 34591.4 hPa NNE 10.3 km/h 33.6 km/h 86 % 0 mm
04:14 -9.1 °C -10.4 °C 34591.4 hPa NNE 12.9 km/h 36.2 km/h 85 % 0 mm
04:19 -9.1 °C -10.4 °C 34591.4 hPa NNE 15.6 km/h 36.2 km/h 85 % 0 mm
04:24 -9.1 °C -10.6 °C 34591.4 hPa NNE 18.2 km/h 31.1 km/h 84 % 0 mm
04:29 -9.1 °C -10.7 °C 34591.4 hPa NNE 15.6 km/h 31.1 km/h 83 % 0 mm
04:34 -9 °C -10.6 °C 34591.4 hPa NNE 12.9 km/h 25.9 km/h 83 % 0 mm
04:39 -8.9 °C -10.6 °C 34591.4 hPa NNE 10.3 km/h 25.9 km/h 83 % 0 mm
04:44 -8.9 °C -10.6 °C 34591.4 hPa NNE 10.3 km/h 25.9 km/h 83 % 0 mm
04:49 -8.9 °C -10.6 °C 34591.4 hPa NNE 10.3 km/h 25.9 km/h 83 % 0 mm
04:54 -8.9 °C -10.6 °C 34577.8 hPa NNE 10.3 km/h 18.2 km/h 83 % 0 mm
04:59 -9 °C -10.6 °C 34577.8 hPa NNE 7.7 km/h 23.3 km/h 83 % 0 mm
05:04 -9 °C -10.7 °C 34577.8 hPa NNE 10.3 km/h 25.9 km/h 82 % 0 mm
05:09 -8.9 °C -10.7 °C 34577.8 hPa NNE 12.9 km/h 31.1 km/h 82 % 0 mm
05:14 -9 °C -10.6 °C 34577.8 hPa NNE 12.9 km/h 31.1 km/h 83 % 0 mm
05:19 -8.9 °C -10.6 °C 34567.7 hPa NNE 12.9 km/h 31.1 km/h 83 % 0 mm
05:24 -8.9 °C -10.6 °C 34577.8 hPa NNE 12.9 km/h 18.2 km/h 83 % 0 mm
05:29 -8.9 °C -10.4 °C 34567.7 hPa NNE 10.3 km/h 23.3 km/h 84 % 0 mm
05:34 -9 °C -10.5 °C 34567.7 hPa NNE 10.3 km/h 33.6 km/h 84 % 0 mm
05:39 -9 °C -10.4 °C 34567.7 hPa NNE 15.6 km/h 33.6 km/h 85 % 0 mm
05:44 -9 °C -10.4 °C 34567.7 hPa NNE 15.6 km/h 31.1 km/h 85 % 0 mm
05:49 -9 °C -10.4 °C 34567.7 hPa NNE 15.6 km/h 31.1 km/h 85 % 0 mm
05:54 -9 °C -10.4 °C 34567.7 hPa NNE 15.6 km/h 36.2 km/h 85 % 0 mm
05:59 -9 °C -10.4 °C 34567.7 hPa NNE 12.9 km/h 36.2 km/h 85 % 0 mm
06:04 -9 °C -10.4 °C 34567.7 hPa NNE 12.9 km/h 25.9 km/h 85 % 0 mm
06:09 -9 °C -10.4 °C 34567.7 hPa NE 12.9 km/h 28.5 km/h 85 % 0 mm
06:14 -9 °C -10.4 °C 34567.7 hPa NE 10.3 km/h 28.5 km/h 85 % 0 mm
06:19 -8.9 °C -10.3 °C 34567.7 hPa NE 10.3 km/h 20.8 km/h 85 % 0 mm
06:24 -9 °C -10.4 °C 34567.7 hPa NE 7.7 km/h 20.8 km/h 85 % 0 mm
06:29 -9 °C -10.4 °C 34567.7 hPa NE 7.7 km/h 20.8 km/h 85 % 0 mm
06:34 -9 °C -10.4 °C 34567.7 hPa NE 10.3 km/h 25.9 km/h 85 % 0 mm
06:40 -9 °C -10.4 °C 34567.7 hPa NE 10.3 km/h 25.9 km/h 85 % 0 mm
06:45 -9 °C -10.3 °C 34567.7 hPa NNE 10.3 km/h 28.5 km/h 86 % 0 mm
06:50 -9 °C -10.3 °C 34554.1 hPa NNE 10.3 km/h 28.5 km/h 86 % 0 mm
06:55 -9.1 °C -10.4 °C 34554.1 hPa NNE 10.3 km/h 23.3 km/h 85 % 0 mm
07:00 -9.1 °C -10.4 °C 34554.1 hPa NNE 10.3 km/h 31.1 km/h 85 % 0 mm
07:05 -9 °C -10.4 °C 34554.1 hPa NNE 10.3 km/h 31.1 km/h 85 % 0 mm
07:10 -9 °C -10.4 °C 34554.1 hPa NNE 10.3 km/h 28.5 km/h 85 % 0 mm
07:15 -9 °C -10.5 °C 34554.1 hPa NNE 10.3 km/h 28.5 km/h 84 % 0 mm
07:20 -9 °C -10.5 °C 34554.1 hPa NNE 10.3 km/h 28.5 km/h 84 % 0 mm
07:25 -9 °C -10.5 °C 34554.1 hPa NNE 12.9 km/h 28.5 km/h 84 % 0 mm
07:30 -9 °C -10.5 °C 34554.1 hPa NNE 12.9 km/h 38.8 km/h 84 % 0 mm
07:35 -9 °C -10.5 °C 34554.1 hPa NNE 15.6 km/h 38.8 km/h 84 % 0 mm
07:40 -9 °C -10.5 °C 34554.1 hPa NNE 15.6 km/h 31.1 km/h 84 % 0 mm
07:45 -9 °C -10.5 °C 34554.1 hPa NNE 15.6 km/h 31.1 km/h 84 % 0 mm
07:50 -9 °C -10.6 °C 34554.1 hPa NNE 18.2 km/h 36.2 km/h 83 % 0 mm
07:55 -9 °C -10.6 °C 34554.1 hPa NNE 15.6 km/h 36.2 km/h 83 % 0 mm
08:00 -9 °C -10.6 °C 34554.1 hPa NNE 15.6 km/h 33.6 km/h 83 % 0 mm
08:05 -8.9 °C -10.6 °C 34554.1 hPa NNE 15.6 km/h 33.6 km/h 83 % 0 mm
08:10 -8.9 °C -10.7 °C 34554.1 hPa NNE 12.9 km/h 33.6 km/h 82 % 0 mm
08:15 -8.9 °C -10.7 °C 34554.1 hPa NNE 12.9 km/h 36.2 km/h 82 % 0 mm
08:20 -8.9 °C -10.7 °C 34554.1 hPa NNE 15.6 km/h 36.2 km/h 82 % 0 mm
08:25 -8.9 °C -10.6 °C 34554.1 hPa NNE 18.2 km/h 36.2 km/h 83 % 0 mm
08:30 -8.9 °C -10.6 °C 34554.1 hPa NNE 15.6 km/h 41.4 km/h 83 % 0 mm
08:35 -8.9 °C -10.6 °C 34554.1 hPa NNE 12.9 km/h 41.4 km/h 83 % 0 mm
08:40 -8.9 °C -10.6 °C 34567.7 hPa NNE 15.6 km/h 36.2 km/h 83 % 0 mm
08:45 -8.9 °C -10.7 °C 34567.7 hPa NNE 18.2 km/h 36.2 km/h 82 % 0 mm
08:50 -8.9 °C -10.7 °C 34567.7 hPa NNE 18.2 km/h 46.7 km/h 81 % 0 mm
08:55 -8.8 °C -10.7 °C 34567.7 hPa NNE 18.2 km/h 46.7 km/h 80 % 0 mm
09:00 -8.8 °C -10.7 °C 34567.7 hPa NNE 18.2 km/h 38.8 km/h 80 % 0 mm
09:05 -8.8 °C -10.7 °C 34567.7 hPa NNE 18.2 km/h 38.8 km/h 80 % 0 mm
09:10 -8.8 °C -10.7 °C 34567.7 hPa NNE 18.2 km/h 36.2 km/h 80 % 0 mm
09:15 -8.8 °C -10.6 °C 34567.7 hPa NNE 18.2 km/h 33.6 km/h 81 % 0 mm
09:20 -8.8 °C -10.6 °C 34567.7 hPa NNE 15.6 km/h 31.1 km/h 81 % 0 mm
09:25 -8.8 °C -10.7 °C 34567.7 hPa NNE 15.6 km/h 33.6 km/h 80 % 0 mm
09:30 -8.8 °C -10.7 °C 34577.8 hPa NNE 15.6 km/h 33.6 km/h 80 % 0 mm
09:35 -8.8 °C -10.7 °C 34577.8 hPa NNE 12.9 km/h 36.2 km/h 80 % 0 mm
09:40 -8.7 °C -10.7 °C 34577.8 hPa NNE 12.9 km/h 36.2 km/h 80 % 0 mm
09:45 -8.7 °C -10.7 °C 34577.8 hPa NNE 12.9 km/h 20.8 km/h 80 % 0 mm
09:50 -8.7 °C -10.7 °C 34577.8 hPa NNE 10.3 km/h 38.8 km/h 80 % 0 mm
09:55 -8.8 °C -10.7 °C 34577.8 hPa NNE 10.3 km/h 38.8 km/h 80 % 0 mm
10:00 -8.8 °C -10.7 °C 34577.8 hPa NE 12.9 km/h 31.1 km/h 80 % 0 mm
10:05 -8.7 °C -10.7 °C 34577.8 hPa NNE 15.6 km/h 31.1 km/h 79 % 0 mm
10:06 -8.7 °C -10.7 °C 34577.8 hPa NNE 15.6 km/h 31.1 km/h 79 % 0 mm
10:11 -8.7 °C -10.8 °C 34577.8 hPa NNE 12.9 km/h 44.1 km/h 78 % 0 mm
10:16 -8.7 °C -10.8 °C 34577.8 hPa NNE 12.9 km/h 44.1 km/h 78 % 0 mm
10:21 -8.6 °C -10.9 °C 34577.8 hPa NNE 18.2 km/h 36.2 km/h 76 % 0 mm
10:26 -8.6 °C -10.9 °C 34577.8 hPa NE 18.2 km/h 44.1 km/h 76 % 0 mm
10:31 -8.5 °C -11 °C 34577.8 hPa NE 18.2 km/h 44.1 km/h 75 % 0 mm
10:36 -8.5 °C -11 °C 34577.8 hPa NE 18.2 km/h 38.8 km/h 75 % 0 mm
10:37 -8.5 °C -11 °C 34577.8 hPa NE 18.2 km/h 36.2 km/h 75 % 0 mm
10:42 -8.5 °C -10.9 °C 34577.8 hPa NE 18.2 km/h 36.2 km/h 76 % 0 mm
10:47 -8.5 °C -10.9 °C 34577.8 hPa NE 15.6 km/h 36.2 km/h 76 % 0 mm
10:52 -8.6 °C -10.8 °C 34577.8 hPa NE 15.6 km/h 41.4 km/h 77 % 0 mm
10:57 -8.5 °C -10.7 °C 34577.8 hPa NE 18.2 km/h 41.4 km/h 78 % 0 mm
11:02 -8.5 °C -10.7 °C 34577.8 hPa NE 18.2 km/h 31.1 km/h 77 % 0 mm
11:07 -8.4 °C -10.7 °C 34591.4 hPa NNE 15.6 km/h 41.4 km/h 77 % 0 mm
11:12 -8.4 °C -10.7 °C 34591.4 hPa NNE 15.6 km/h 41.4 km/h 76 % 0 mm
11:17 -8.4 °C -10.7 °C 34591.4 hPa NNE 18.2 km/h 36.2 km/h 77 % 0 mm
11:22 -8.3 °C -10.5 °C 34591.4 hPa NE 18.2 km/h 36.2 km/h 78 % 0 mm
11:28 -8.4 °C -10.4 °C 34591.4 hPa NE 18.2 km/h 38.8 km/h 79 % 0 mm
11:33 -8.4 °C -10.2 °C 34591.4 hPa NE 18.2 km/h 38.8 km/h 81 % 0 mm
11:38 -8.5 °C -10.3 °C 34591.4 hPa NE 20.8 km/h 38.8 km/h 81 % 0 mm
11:43 -8.5 °C -10.3 °C 34591.4 hPa NE 20.8 km/h 38.8 km/h 81 % 0 mm
11:48 -8.4 °C -10.3 °C 34591.4 hPa NE 20.8 km/h 36.2 km/h 81 % 0 mm
11:53 -8.3 °C -10.3 °C 34591.4 hPa NE 18.2 km/h 33.6 km/h 80 % 0 mm
11:58 -8.4 °C -10.3 °C 34591.4 hPa NE 15.6 km/h 38.8 km/h 80 % 0 mm
12:03 -8.3 °C -10.3 °C 34591.4 hPa NE 15.6 km/h 38.8 km/h 80 % 0 mm
12:08 -8.3 °C -10.2 °C 34591.4 hPa NE 18.2 km/h 38.8 km/h 80 % 0 mm
12:13 -8.2 °C -10.2 °C 34591.4 hPa NE 15.6 km/h 31.1 km/h 79 % 0 mm
12:18 -8.1 °C -10.3 °C 34591.4 hPa NNE 15.6 km/h 46.7 km/h 78 % 0 mm
12:23 -8.1 °C -10.2 °C 34591.4 hPa NE 15.6 km/h 46.7 km/h 79 % 0 mm
12:28 -8.1 °C -10.3 °C 34591.4 hPa NE 18.2 km/h 44.1 km/h 78 % 0 mm
12:33 -8.1 °C -10.3 °C 34591.4 hPa NE 20.8 km/h 64.7 km/h 78 % 0 mm
12:38 -8.2 °C -10.3 °C 34591.4 hPa NE 20.8 km/h 64.7 km/h 79 % 0 mm
12:43 -8.2 °C -10.3 °C 34591.4 hPa NE 23.3 km/h 49.2 km/h 79 % 0 mm
12:48 -8.3 °C -10.2 °C 34591.4 hPa NE 25.9 km/h 46.7 km/h 80 % 0 mm
12:53 -8.4 °C -10.3 °C 34591.4 hPa NE 28.5 km/h 51.8 km/h 80 % 0 mm
12:58 -8.4 °C -10.3 °C 34591.4 hPa NE 31.1 km/h 51.8 km/h 80 % 0 mm
13:03 -8.4 °C -10.2 °C 34591.4 hPa NE 31.1 km/h 51.8 km/h 81 % 0 mm
13:08 -8.3 °C -10.2 °C 34591.4 hPa NE 31.1 km/h 51.8 km/h 81 % 0 mm
13:13 -8.3 °C -10.1 °C 34577.8 hPa NE 28.5 km/h 49.2 km/h 81 % 0 mm
13:18 -8.1 °C -10.1 °C 34577.8 hPa NE 25.9 km/h 49.2 km/h 79 % 0 mm
13:23 -8.2 °C -10.3 °C 34577.8 hPa NE 23.3 km/h 51.8 km/h 78 % 0 mm
13:28 -8.2 °C -10.2 °C 34567.7 hPa NE 23.3 km/h 51.8 km/h 79 % 0 mm
13:33 -8 °C -10.2 °C 34567.7 hPa NE 23.3 km/h 46.7 km/h 78 % 0 mm
13:38 -8.2 °C -10.4 °C 34567.7 hPa NE 23.3 km/h 54.4 km/h 78 % 0 mm
13:43 -8.2 °C -10.4 °C 34567.7 hPa NE 25.9 km/h 54.4 km/h 78 % 0 mm
13:48 -8.1 °C -10.2 °C 34567.7 hPa NE 28.5 km/h 51.8 km/h 79 % 0 mm
13:53 -8.2 °C -10.3 °C 34567.7 hPa NE 28.5 km/h 54.4 km/h 79 % 0 mm
13:58 -8.2 °C -10.3 °C 34567.7 hPa NE 28.5 km/h 54.4 km/h 79 % 0 mm
14:03 -8.2 °C -10.2 °C 34567.7 hPa NE 28.5 km/h 54.4 km/h 80 % 0 mm
14:08 -8.1 °C -10.3 °C 34567.7 hPa NE 28.5 km/h 54.4 km/h 78 % 0 mm
14:14 -8 °C -10.2 °C 34567.7 hPa NE 25.9 km/h 54.4 km/h 78 % 0 mm
14:18 -7.9 °C -10.3 °C 34567.7 hPa NE 25.9 km/h 59.5 km/h 76 % 0 mm
14:24 -7.8 °C -10.3 °C 34567.7 hPa NE 25.9 km/h 59.5 km/h 75 % 0 mm
14:29 -7.8 °C -10.3 °C 34567.7 hPa NE 25.9 km/h 44.1 km/h 75 % 0 mm
14:34 -7.9 °C -10.4 °C 34567.7 hPa NE 23.3 km/h 46.7 km/h 75 % 0 mm
14:39 -7.9 °C -10.3 °C 34567.7 hPa NE 25.9 km/h 51.8 km/h 76 % 0 mm
14:44 -7.9 °C -10.2 °C 34567.7 hPa NE 28.5 km/h 51.8 km/h 77 % 0 mm
14:49 -7.9 °C -10.2 °C 34567.7 hPa NE 28.5 km/h 49.2 km/h 77 % 0 mm
14:54 -7.9 °C -10.2 °C 34567.7 hPa NE 28.5 km/h 51.8 km/h 77 % 0 mm
14:59 -7.9 °C -10.1 °C 34567.7 hPa NE 28.5 km/h 57 km/h 78 % 0 mm
15:04 -7.8 °C -10.1 °C 34554.1 hPa NE 25.9 km/h 57 km/h 77 % 0 mm
15:09 -7.9 °C -10.1 °C 34554.1 hPa NE 25.9 km/h 57 km/h 78 % 0 mm
15:14 -7.9 °C -10.2 °C 34554.1 hPa NE 28.5 km/h 57 km/h 77 % 0 mm
15:19 -7.8 °C -10.1 °C 34554.1 hPa NE 25.9 km/h 51.8 km/h 77 % 0 mm
15:24 -7.8 °C -10.2 °C 34554.1 hPa NE 25.9 km/h 57 km/h 76 % 0 mm
15:29 -8 °C -10.3 °C 34554.1 hPa NE 25.9 km/h 57 km/h 77 % 0 mm
15:34 -8 °C -10.3 °C 34554.1 hPa NE 31.1 km/h 54.4 km/h 77 % 0 mm
15:39 -8 °C -10.3 °C 34554.1 hPa NE 31.1 km/h 54.4 km/h 77 % 0 mm
15:45 -7.8 °C -10.2 °C 34554.1 hPa NE 31.1 km/h 51.8 km/h 76 % 0 mm
15:50 -7.9 °C -10.4 °C 34554.1 hPa NE 28.5 km/h 59.5 km/h 75 % 0 mm
15:55 -7.9 °C -10.4 °C 34554.1 hPa NE 28.5 km/h 59.5 km/h 75 % 0 mm
16:00 -7.8 °C -10.3 °C 34554.1 hPa NE 28.5 km/h 57 km/h 75 % 0 mm
16:05 -7.8 °C -10.3 °C 34554.1 hPa NE 28.5 km/h 54.4 km/h 75 % 0 mm
16:10 -7.7 °C -10.2 °C 34554.1 hPa NE 28.5 km/h 54.4 km/h 75 % 0 mm
16:15 -7.6 °C -10.1 °C 34544 hPa NE 25.9 km/h 54.4 km/h 75 % 0 mm
16:20 -7.6 °C -10.2 °C 34554.1 hPa NE 23.3 km/h 46.7 km/h 74 % 0 mm
16:25 -7.7 °C -10.2 °C 34544 hPa NE 20.8 km/h 54.4 km/h 75 % 0 mm
16:30 -7.8 °C -10.3 °C 34533.8 hPa NE 25.9 km/h 62.1 km/h 75 % 0 mm
16:35 -7.7 °C -10.1 °C 34533.8 hPa NE 31.1 km/h 62.1 km/h 76 % 0 mm
16:40 -7.7 °C -10.2 °C 34533.8 hPa NE 31.1 km/h 57 km/h 75 % 0 mm
16:45 -7.6 °C -10.2 °C 34533.8 hPa NE 28.5 km/h 57 km/h 74 % 0 mm
16:50 -7.8 °C -10.3 °C 34533.8 hPa NE 25.9 km/h 57 km/h 75 % 0 mm
16:55 -7.7 °C -10.3 °C 34533.8 hPa NE 28.5 km/h 57 km/h 74 % 0 mm
17:00 -7.7 °C -10.3 °C 34533.8 hPa NE 28.5 km/h 57 km/h 74 % 0 mm
17:05 -7.7 °C -10.3 °C 34533.8 hPa NE 25.9 km/h 57 km/h 74 % 0 mm
17:10 -7.7 °C -10.3 °C 34533.8 hPa NE 23.3 km/h 46.7 km/h 74 % 0 mm
17:15 -7.8 °C -10.2 °C 34520.3 hPa NE 23.3 km/h 57 km/h 76 % 0 mm
17:20 -7.8 °C -10.2 °C 34533.8 hPa NE 28.5 km/h 59.5 km/h 76 % 0 mm
17:25 -7.9 °C -10.2 °C 34520.3 hPa NE 31.1 km/h 59.5 km/h 77 % 0 mm
17:30 -7.8 °C -10.1 °C 34520.3 hPa NE 31.1 km/h 51.8 km/h 77 % 0 mm
17:35 -7.8 °C -10.2 °C 34520.3 hPa NE 25.9 km/h 57 km/h 76 % 0 mm
17:40 -7.9 °C -10.2 °C 34510.1 hPa NE 25.9 km/h 57 km/h 77 % 0 mm
17:45 -7.7 °C -10 °C 34520.3 hPa NE 25.9 km/h 51.8 km/h 77 % 0 mm
17:50 -7.7 °C -10.1 °C 34520.3 hPa NE 25.9 km/h 57 km/h 76 % 0 mm
17:55 -7.7 °C -10.1 °C 34520.3 hPa NE 25.9 km/h 57 km/h 76 % 0 mm
18:00 -7.6 °C -10.1 °C 34520.3 hPa NE 25.9 km/h 49.2 km/h 75 % 0 mm
Ulpukkaniemen harrastesääasema
Terveisin Weather Underground - 2.5 mb

Alkuperäinen skripti  Jim McMurry - jmcmurry@mwt.net Sovitettu myös templatelle  Wim van der Kuil - Leuven-Template.eu

Laitteet joita käytämme:

Sääasema
WS3083

Sääasemaohjelma
Cumulus

Sääaseman tietokone
RaspberryPI

Palveluntarjoaja
Suncomet

WS3083

Cumulus

RaspberryPI

Suncomet